Weather History for Marysville, CA

Change the Weather History Date:

Thursday, January 24, 2013

  Actual Average Record
Temperature  
Mean Temperature 52 °F -  
Max Temperature 57 °F 56 °F 75 °F (2014)
Min Temperature 48 °F 37 °F 41 °F (2014)
Degree Days  
Heating Degree Days 12    
Growing Degree Days 2 (Base 50)    
Moisture  
Dew Point 51 °F    
Average Humidity 90    
Maximum Humidity 100    
Minimum Humidity 80    
Precipitation  
Precipitation 0.01 in - - ()
Sea Level Pressure  
Sea Level Pressure 30.16 in    
Wind  
Wind Speed 8 mph (NNW)    
Max Wind Speed 14 mph    
Max Gust Speed -    
Visibility 6 miles    
Events Rain    
Averages and records for this station are not official NWS values.
T = Trace of Precipitation, MM = Missing Value Source: NWS Daily Summary

Daily Weather History Graph

Daily Weather History Graph

Search for Another Location

Airport:

Trip Planner

Search our weather history database for the weather conditions in past years. The results will help you decide how hot, cold, wet, or windy it might be!

Date:

Astronomy

Jan. 24, 2013 Rise Set
Actual Time 7:18 AM PST 5:18 PM PST
Civil Twilight 6:50 AM PST 5:47 PM PST
Nautical Twilight 6:17 AM PST 6:19 PM PST
Astronomical Twilight 5:46 AM PST 6:51 PM PST
Moon 3:25 PM PST (1/24) 5:20 AM PST (1/24)
Length of Visible Light 10h 56m
Length of Day
9h 59m
Waxing Gibbous, 95% of the Moon is Illuminated
Jan 24
Waxing Gibbous
Jan 26
Full
Feb 3
Last Quarter
Feb 9
New
Feb 17
First Quarter

Hourly Weather History & Observations

Time (PST) Temp. Dew Point Humidity Pressure Visibility Wind Dir Wind Speed Gust Speed Precip Events Conditions
12:07 AM 48.2 °F - N/A% 30.12 in 3.0 mi NNW 13.8 mph - 0.00 in Rain Light Rain
12:53 AM 48.0 °F - N/A% 30.12 in 3.0 mi NNW 13.8 mph - 0.01 in Rain Light Rain
1:53 AM 48.0 °F - N/A% 30.11 in 4.0 mi NNW 10.4 mph - 0.00 in   Haze
2:53 AM 48.9 °F - N/A% 30.11 in 4.0 mi NNW 12.7 mph - N/A   Haze
3:53 AM 48.9 °F - N/A% 30.10 in 6.0 mi NNW 12.7 mph - N/A   Haze
4:53 AM 48.9 °F - N/A% 30.10 in 5.0 mi NNW 11.5 mph - N/A   Haze
5:22 AM 48.2 °F - N/A% 30.11 in 6.0 mi NW 4.6 mph - N/A   Haze
5:53 AM 48.9 °F 46.9 °F 93% 30.13 in 6.0 mi North 5.8 mph - N/A   Overcast
6:53 AM 48.9 °F 46.9 °F 93% 30.13 in 6.0 mi NNW 13.8 mph - N/A   Overcast
7:53 AM 48.9 °F 46.9 °F 93% 30.14 in 5.0 mi North 8.1 mph - N/A   Overcast
8:53 AM 50.0 °F 48.0 °F 93% 30.16 in 7.0 mi NNW 5.8 mph - N/A   Overcast
9:53 AM 51.1 °F 48.0 °F 89% 30.17 in 10.0 mi North 9.2 mph - N/A   Overcast
10:53 AM 53.1 °F 48.9 °F 86% 30.17 in 10.0 mi North 8.1 mph - N/A   Overcast
11:53 AM 53.1 °F 50.0 °F 89% 30.17 in 10.0 mi NW 5.8 mph - N/A   Overcast
12:53 PM 55.9 °F 50.0 °F 80% 30.16 in 10.0 mi Variable 3.5 mph - N/A   Overcast
1:53 PM 57.0 °F 51.1 °F 81% 30.16 in 10.0 mi East 4.6 mph - N/A   Overcast
2:53 PM 57.0 °F 51.1 °F 81% 30.16 in 10.0 mi East 3.5 mph - N/A   Overcast
3:53 PM 57.0 °F 51.1 °F 81% 30.16 in 10.0 mi Calm Calm - N/A   Overcast
4:53 PM 57.0 °F 52.0 °F 83% 30.17 in 10.0 mi Calm Calm - N/A   Overcast
5:53 PM 55.0 °F 52.0 °F 89% 30.17 in 10.0 mi Calm Calm - 0.00 in   Overcast
6:53 PM 54.0 °F 52.0 °F 93% 30.19 in 7.0 mi SE 3.5 mph - N/A   Overcast
7:53 PM 54.0 °F 52.0 °F 93% 30.20 in 6.0 mi Calm Calm - N/A   Overcast
8:43 PM 53.6 °F 51.8 °F 94% 30.19 in 6.0 mi Calm Calm - N/A   Overcast
8:53 PM 54.0 °F 52.0 °F 93% 30.21 in 5.0 mi Calm Calm - N/A   Overcast
9:53 PM 54.0 °F 52.0 °F 93% 30.21 in 5.0 mi Calm Calm - N/A   Overcast
10:06 PM 53.6 °F 51.8 °F 94% 30.20 in 5.0 mi Calm Calm - N/A   Overcast
10:53 PM 53.1 °F 52.0 °F 96% 30.21 in 4.0 mi West 4.6 mph - N/A   Overcast
11:21 PM 53.6 °F 53.6 °F 100% 30.20 in 2.5 mi Calm Calm - 0.00 in Rain Light Rain
11:32 PM 53.6 °F 51.8 °F 94% 30.20 in 3.0 mi South 3.5 mph - 0.00 in   Overcast
11:42 PM 53.6 °F 51.8 °F 94% 30.20 in 2.5 mi South 4.6 mph - 0.00 in   Overcast
11:53 PM 53.1 °F 52.0 °F 96% 30.21 in 2.0 mi South 3.5 mph - 0.00 in   Overcast